Location: *
(52.2090°N, 4.1550°W)
Time: 12:17:50
(UTC+00:00)

Cosmos 2369 Rocket - Pass Details

Date: 19 July 2019
Orbit: 827 x 854 km, 71.0° (Epoch: 20 August)

Event Time Altitude Azimuth Distance (km) Brightness Sun altitude
Rises 23:27:46 0° 329° (NNW) 3,436 6.8 -16.0°
Reaches altitude 10° 23:30:30 10° 340° (NNW) 2,497 6.0 -16.1°
Maximum altitude 23:35:38 32° 43° (NE) 1,426 3.7 -16.3°
Drops below altitude 10° 23:40:43 10° 106° (ESE) 2,481 4.4 -16.5°
Enters shadow 23:42:10 - 112° (ESE) 2,972 4.7 -16.5°
